User: anonymous   Login
Location: Les Jeannots
(43.2262°N, 5.5774°E)
Time: 23:27:41
(UTC+00:00)
Language:

Cosmos 1844 - Orbit

View from above orbital plane
View from above orbital plane
View from above satellite
View from above satellite

Ground track
Ground track

The orbit data is extracted from the following two-line orbital elements,

1 17973U 87041A   20272.42618481 -.00000102 +00000-0 -27866-4 0  9992
2 17973 070.8979 266.0210 0028736 129.2907 231.0770 14.14113152722477
Epoch (UTC): 28 September 2020 10:13:42
Eccentricity: 0.0028736
inclination: 70.8979°
perigee height: 824 km
apogee height: 866 km
right ascension of ascending node: 266.0210°
argument of perigee: 129.2907°
revolutions per day: 14.14113152
mean anomaly at epoch: 231.0770°
orbit number at epoch: 72247

The dashed part of the orbit path shows where the satellite is in the earth's shadow,  

DLR